Decatur, TX

8:25 PM CDT on July 26, 2017 (GMT -0500)
Decatur

Weather History for KLUD - February, 2014

Change the Weather History Date:

Sunday, February 23, 2014

  Actual Average (KDTO) Record (KDTO)
Temperature  
Mean Temperature 54 °F -  
Max Temperature 64 °F 57 °F 89 °F (2017)
Min Temperature 43 °F 36 °F 24 °F (2015)
Degree Days  
Heating Degree Days 12    
Growing Degree Days 4 (Base 50)    
Moisture  
Dew Point 44 °F    
Average Humidity 68    
Maximum Humidity 97    
Minimum Humidity 41    
Precipitation  
Precipitation 0.00 in - - ()
Sea Level Pressure  
Sea Level Pressure 29.99 in    
Wind  
Wind Speed 11 mph (North)    
Max Wind Speed 17 mph    
Max Gust Speed 22 mph    
Visibility 10 miles    
Events      
Averages and records for this station are not official NWS values.
T = Trace of Precipitation, MM = Missing Value Source: NWS Daily Summary

Daily Weather History Graph

Daily Weather History Graph

Search for Another Location

Airport or City:

Trip Planner

Search our weather history database for the weather conditions in past years. The results will help you decide how hot, cold, wet, or windy it might be!

Date:

Astronomy

Feb. 23, 2014 Rise Set
Actual Time 7:05 AM CST 6:22 PM CST
Civil Twilight 6:40 AM CST 6:47 PM CST
Nautical Twilight 6:11 AM CST 7:16 PM CST
Astronomical Twilight 5:42 AM CST 7:44 PM CST
Moon 1:56 AM CST (2/23) 12:35 PM CST (2/23)
Length of Visible Light 12h 06m
Length of Day
11h 16m
Last Quarter, 38% of the Moon is Illuminated
Feb 23
Last Quarter
Mar 1
New
Mar 8
First Quarter
Mar 16
Full
Mar 23
Last Quarter

Hourly Weather History & Observations

Time (CST) Temp. Windchill Dew Point Humidity Pressure Visibility Wind Dir Wind Speed Gust Speed Precip Events Conditions
12:15 AM 60.8 °F - 50.9 °F 70% 29.84 in 10.0 mi SSE 17.3 mph 21.9 mph N/A   Clear
12:35 AM 60.1 °F - 51.1 °F 72% 29.84 in 10.0 mi SSE 15.0 mph - N/A   Clear
12:55 AM 59.7 °F - 51.3 °F 74% 29.83 in 10.0 mi South 16.1 mph - N/A   Clear
1:15 AM 59.2 °F - 51.6 °F 76% 29.84 in 10.0 mi SSE 15.0 mph 21.9 mph N/A   Clear
1:35 AM 58.6 °F - 51.8 °F 78% 29.84 in 10.0 mi SSE 13.8 mph - N/A   Clear
1:55 AM 58.1 °F - 51.8 °F 80% 29.84 in 10.0 mi South 12.7 mph - N/A   Clear
2:15 AM 57.4 °F - 51.8 °F 82% 29.84 in 10.0 mi South 11.5 mph - N/A   Clear
2:35 AM 57.2 °F - 52.0 °F 83% 29.85 in 10.0 mi South 11.5 mph - N/A   Clear
2:55 AM 56.8 °F - 52.3 °F 85% 29.85 in 10.0 mi South 11.5 mph - N/A   Clear
3:15 AM 56.5 °F - 52.7 °F 87% 29.84 in 10.0 mi South 11.5 mph - N/A   Clear
3:35 AM 56.3 °F - 53.1 °F 89% 29.85 in 10.0 mi South 10.4 mph - N/A   Clear
3:55 AM 56.3 °F - 53.6 °F 91% 29.85 in 10.0 mi South 11.5 mph - N/A   Clear
4:15 AM 55.8 °F - 53.6 °F 92% 29.85 in 10.0 mi South 10.4 mph - N/A   Clear
4:35 AM 55.8 °F - 53.6 °F 92% 29.85 in 10.0 mi South 13.8 mph - N/A   Clear
4:55 AM 55.9 °F - 53.8 °F 92% 29.85 in 10.0 mi South 12.7 mph 17.3 mph N/A   Clear
5:15 AM 56.3 °F - 53.8 °F 91% 29.85 in 10.0 mi South 12.7 mph - N/A   Clear
5:35 AM 56.1 °F - 53.8 °F 92% 29.85 in 10.0 mi South 12.7 mph - N/A   Clear
5:55 AM 55.4 °F - 53.6 °F 94% 29.87 in 10.0 mi SSW 11.5 mph - N/A   Clear
6:15 AM 55.0 °F - 53.4 °F 94% 29.87 in 10.0 mi SSW 11.5 mph - N/A   Clear
6:35 AM 54.5 °F - 53.1 °F 95% 29.88 in 10.0 mi SSW 11.5 mph - N/A   Clear
6:55 AM 54.0 °F - 52.7 °F 95% 29.88 in 7.0 mi SSW 10.4 mph - N/A   Clear
7:15 AM 53.6 °F - 52.7 °F 97% 29.89 in 7.0 mi SW 8.1 mph - N/A   Clear
7:35 AM 53.8 °F - 52.9 °F 97% 29.91 in 7.0 mi WSW 6.9 mph - N/A   Clear
7:55 AM 54.0 °F - 52.7 °F 95% 29.91 in 10.0 mi WSW 6.9 mph - N/A   Clear
8:15 AM 54.0 °F - 52.9 °F 96% 29.92 in 7.0 mi WSW 9.2 mph - N/A   Clear
8:35 AM 53.8 °F - 52.7 °F 96% 29.93 in 7.0 mi West 9.2 mph 16.1 mph N/A   Clear
8:55 AM 54.0 °F - 47.3 °F 78% 29.94 in 10.0 mi West 8.1 mph - N/A   Clear
9:15 AM 53.1 °F - 45.5 °F 75% 29.96 in 10.0 mi WNW 8.1 mph - N/A   Clear
9:35 AM 51.3 °F - 41.9 °F 70% 29.97 in 10.0 mi NW 9.2 mph - N/A   Clear
9:55 AM 52.7 °F - 42.3 °F 68% 29.98 in 10.0 mi NW 12.7 mph 17.3 mph N/A   Clear
10:15 AM 54.3 °F - 43.3 °F 66% 29.99 in 10.0 mi NW 10.4 mph 16.1 mph N/A   Clear
10:35 AM 55.6 °F - 44.2 °F 66% 30.00 in 10.0 mi NNW 8.1 mph - N/A   Clear
10:55 AM 57.0 °F - 45.0 °F 64% 30.00 in 10.0 mi NNW 10.4 mph 16.1 mph N/A   Clear
11:15 AM 58.8 °F - 44.1 °F 58% 30.02 in 10.0 mi NW 9.2 mph 17.3 mph N/A   Clear
11:35 AM 58.3 °F - 42.1 °F 55% 30.03 in 10.0 mi NNW 9.2 mph 17.3 mph N/A   Clear
11:55 AM 59.4 °F - 41.9 °F 52% 30.03 in 10.0 mi North 10.4 mph - N/A   Clear
12:15 PM 61.5 °F - 43.0 °F 51% 30.03 in 10.0 mi NNW 9.2 mph - N/A   Clear
12:35 PM 62.1 °F - 41.5 °F 47% 30.03 in 10.0 mi NW 10.4 mph 17.3 mph N/A   Clear
12:55 PM 62.8 °F - 41.0 °F 45% 30.02 in 10.0 mi NNW 9.2 mph 18.4 mph N/A   Clear
1:15 PM 62.6 °F - 39.9 °F 43% 30.03 in 10.0 mi NNW 12.7 mph 17.3 mph N/A   Clear
1:35 PM 63.3 °F - 40.1 °F 43% 30.02 in 10.0 mi North 13.8 mph 18.4 mph N/A   Clear
1:55 PM 64.0 °F - 39.9 °F 41% 30.03 in 10.0 mi NNW 11.5 mph 20.7 mph N/A   Clear
2:15 PM 63.1 °F - 40.5 °F 43% 30.03 in 10.0 mi North 11.5 mph 17.3 mph N/A   Clear
2:35 PM 63.7 °F - 41.0 °F 43% 30.03 in 10.0 mi North 13.8 mph 18.4 mph N/A   Clear
2:55 PM 63.0 °F - 41.4 °F 45% 30.04 in 10.0 mi NNW 11.5 mph 17.3 mph N/A   Clear
3:15 PM 62.1 °F - 41.2 °F 46% 30.04 in 10.0 mi North 15.0 mph 20.7 mph N/A   Clear
3:35 PM 61.9 °F - 41.5 °F 47% 30.04 in 10.0 mi North 11.5 mph 18.4 mph N/A   Clear
3:55 PM 62.2 °F - 41.0 °F 46% 30.05 in 10.0 mi North 9.2 mph - N/A   Clear
4:15 PM 62.1 °F - 40.5 °F 45% 30.05 in 10.0 mi North 10.4 mph 16.1 mph N/A   Clear
4:35 PM 61.2 °F - 41.9 °F 49% 30.05 in 10.0 mi NNE 9.2 mph 18.4 mph N/A   Clear
4:55 PM 60.1 °F - 41.2 °F 50% 30.06 in 10.0 mi NNE 11.5 mph 18.4 mph N/A   Clear
5:15 PM 58.8 °F - 40.5 °F 51% 30.07 in 10.0 mi NE 10.4 mph 16.1 mph N/A   Clear
5:35 PM 58.5 °F - 40.3 °F 51% 30.06 in 10.0 mi NE 10.4 mph - N/A   Clear
5:55 PM 57.2 °F - 39.4 °F 51% 30.07 in 10.0 mi NNE 8.1 mph - N/A   Clear
6:15 PM 55.6 °F - 39.2 °F 54% 30.08 in 10.0 mi NE 5.8 mph - N/A   Clear
6:35 PM 53.6 °F - 38.7 °F 57% 30.08 in 10.0 mi NE 5.8 mph - N/A   Clear
6:55 PM 52.3 °F - 38.3 °F 59% 30.09 in 10.0 mi NE 4.6 mph - N/A   Clear
7:15 PM 51.1 °F - 37.4 °F 60% 30.10 in 10.0 mi ENE 4.6 mph - N/A   Clear
7:35 PM 50.5 °F - 36.7 °F 59% 30.11 in 10.0 mi NE 3.5 mph - N/A   Clear
7:55 PM 50.0 °F - 36.1 °F 59% 30.11 in 10.0 mi NE 3.5 mph - N/A   Clear
8:15 PM 49.3 °F - 36.0 °F 60% 30.12 in 10.0 mi NNE 3.5 mph - N/A   Clear
8:35 PM 48.2 °F - 35.6 °F 62% 30.12 in 10.0 mi NE 4.6 mph - N/A   Clear
8:55 PM 47.3 °F - 35.2 °F 63% 30.12 in 10.0 mi NE 4.6 mph - N/A   Clear
9:15 PM 46.0 °F 44.8 °F 35.1 °F 66% 30.13 in 10.0 mi NNE 3.5 mph - N/A   Clear
9:35 PM 45.5 °F 43.2 °F 35.2 °F 67% 30.13 in 10.0 mi NNE 4.6 mph - N/A   Clear
9:55 PM 45.5 °F 43.2 °F 35.2 °F 67% 30.14 in 10.0 mi NNE 4.6 mph - N/A   Clear
10:15 PM 45.1 °F 42.8 °F 35.2 °F 68% 30.14 in 10.0 mi NNE 4.6 mph - N/A   Clear
10:35 PM 44.8 °F 42.4 °F 34.7 °F 68% 30.14 in 10.0 mi NNE 4.6 mph - N/A   Clear
10:55 PM 44.2 °F 42.7 °F 34.2 °F 68% 30.14 in 10.0 mi NNE 3.5 mph - N/A   Clear
11:15 PM 44.4 °F 42.9 °F 33.4 °F 65% 30.15 in 10.0 mi NNE 3.5 mph - N/A   Clear
11:35 PM 43.7 °F 40.3 °F 32.9 °F 66% 30.14 in 10.0 mi NE 5.8 mph - N/A   Clear
11:55 PM 43.0 °F 38.2 °F 32.2 °F 66% 30.13 in 10.0 mi NE 8.1 mph - N/A   Clear